Probability
45 26 23 16 0 0 0 0 0 0 0 0 0 0 0 0 0 0 0 6 10 23 42 58 55 45 42 48 45 39 48 52 52 61 55 55 52 45 45 45 39 45 42 35 35 39 35 35 32
29 16 10 6 0 0 0 0 0 0 0 0 0 0 0 0 0 0 3 16 19 23 29 39 65 55 48 45 48 48 52 48 52 52 48 42 45 42 32 32 32 39 39 35 39 39 35 35 32
26 19 3 3 0 0 0 0 0 0 0 0 0 0 3 0 0 0 6 16 16 23 26 55 61 52 48 45 45 48 48 45 48 55 42 39 35 35 42 32 29 29 29 29 32 26 32 29 26
6 0 3 0 0 0 0 0 0 0 0 0 0 3 0 3 3 3 13 16 19 26 32 48 61 52 55 42 45 42 45 48 48 42 42 39 35 35 29 23 23 29 26 26 26 19 23 23 29
3 0 0 0 0 0 0 0 0 0 0 0 0 3 0 0 3 6 16 13 16 29 32 39 58 48 52 55 45 45 45 58 58 52 42 45 32 32 26 23 23 23 29 29 26 26 26 29 29
0 0 0 0 0 0 0 0 0 0 0 3 0 3 0 3 3 6 13 19 19 23 29 45 58 52 52 55 52 58 52 55 42 42 42 42 35 29 29 29 26 19 19 23 19 26 23 19 23
6 0 0 0 0 0 0 0 0 0 0 3 0 0 3 0 0 6 16 16 13 19 29 26 32 45 45 52 48 55 55 48 48 39 39 39 42 32 26 29 26 26 23 19 19 23 26 23 29
6 0 0 0 0 0 0 0 0 0 0 3 3 0 0 0 0 6 10 13 16 16 13 16 19 19 23 32 48 55 52 48 52 52 45 42 32 19 23 16 23 26 26 16 23 32 29 29 32
0 0 0 0 0 0 0 0 0 0 3 6 6 3 0 0 0 3 6 6 13 16 13 10 13 3 10 13 26 35 42 35 45 39 48 32 6 6 6 16 26 19 13 23 32 29 26 23 26
3 0 0 0 0 0 0 0 0 0 6 10 13 10 6 6 3 3 3 3 6 6 10 6 6 3 3 6 13 13 13 10 13 10 10 10 3 6 6 13 26 29 23 26 23 23 19 13 0
3 0 0 0 0 0 0 0 0 0 0 6 13 6 6 3 3 0 0 0 0 6 13 10 3 3 3 3 3 0 0 0 0 0 3 3 0 0 3 3 3 6 10 10 6 3 3 3 0
0 0 0 0 0 0 0 0 0 0 0 3 10 13 10 10 6 3 0 0 3 3 6 10 3 3 3 3 3 0 0 0 0 0 0 0 0 0 0 0 0 0 3 3 3 0 0 0 0
3 3 0 0 0 0 0 0 0 0 0 6 13 13 10 10 10 6 6 0 3 3 6 3 3 3 3 0 3 3 3 0 0 0 0 0 0 0 0 0 0 0 0 0 0 0 0 0 0
3 0 0 0 0 0 0 0 0 0 0 6 10 10 10 6 10 3 3 3 3 3 3 0 0 0 0 0 0 3 3 0 0 0 0 0 0 0 0 0 0 0 0 0 0 0 0 0 0
0 0 0 0 0 0 0 0 0 0 3 6 6 6 3 3 3 3 6 3 3 3 3 0 0 0 0 0 0 0 0 0 0 0 0 0 0 0 0 0 0 0 0 0 0 0 0 0 0
0 0 0 0 0 0 0 0 0 0 0 3 3 3 3 3 3 3 3 3 3 3 3 0 0 0 0 0 0 0 0 0 0 0 0 0 0 0 0 0 0 0 0 0 0 0 0 0 0
0 0 0 0 0 0 0 0 0 0 3 0 0 3 3 3 3 6 3 3 3 3 3 3 0 0 0 0 0 0 0 0 0 0 0 0 0 0 0 0 0 0 0 0 0 0 0 0 0
0 0 0 0 0 0 0 0 0 0 0 0 0 0 3 3 3 3 6 3 3 3 0 0 0 0 0 0 0 0 0 0 0 0 0 0 0 0 0 0 0 0 0 0 0 0 0 0 0
0 0 0 0 0 0 0 0 0 0 0 0 0 0 0 0 3 3 3 0 0 0 0 0 0 0 0 0 0 0 0 0 0 0 0 0 0 0 0 0 0 0 0 0 0 0 0 0 0
0 0 0 0 0 0 0 0 0 0 0 0 0 0 0 3 0 3 0 0 0 0 0 0 0 0 0 0 0 0 0 0 0 0 0 0 0 0 0 0 0 0 0 0 0 0 0 0 0
0 0 0 0 0 0 0 0 0 0 0 0 0 0 0 3 0 3 0 0 0 0 0 0 0 0 0 0 0 0 0 0 0 0 0 0 0 0 0 0 0 0 0 0 0 0 0 0 0
0 0 0 0 0 0 0 0 0 0 0 0 0 0 0 0 3 3 0 0 0 0 0 0 0 0 0 0 0 0 0 0 0 0 0 0 0 0 0 0 0 0 0 0 0 0 0 0 0
0 0 0 0 0 0 0 0 0 0 0 0 0 0 0 0 0 3 3 0 0 0 0 0 0 0 0 0 0 0 0 0 0 0 0 0 0 0 0 0 0 0 0 0 0 0 0 0 0
0 0 0 0 0 0 0 0 0 0 0 0 0 0 0 0 3 3 3 0 0 0 0 0 0 0 0 0 0 0 0 0 0 0 0 0 0 0 0 0 0 0 0 0 0 0 0 0 0
0 0 0 0 0 0 0 0 0 0 0 0 0 0 0 0 0 3 0 3 0 0 0 0 0 0 0 0 0 0 0 0 0 0 0 0 0 0 0 0 0 0 0 0 0 0 0 0 0
0 0 0 0 0 0 0 0 0 0 0 0 0 0 0 0 0 3 0 0 0 0 0 0 0 0 0 0 0 0 0 0 0 0 0 0 0 0 0 0 0 0 0 0 0 0 0 0 0
0 0 0 0 0 0 0 0 0 0 0 0 0 0 0 0 6 3 0 0 0 0 0 0 0 0 0 0 0 0 0 0 0 0 0 0 0 0 0 0 0 0 0 0 0 0 0 0 0
0 0 0 0 0 0 0 0 0 0 0 0 0 0 0 3 6 3 0 0 0 0 0 0 0 0 0 0 0 0 0 0 0 0 0 0 0 0 0 0 0 0 0 0 0 0 0 0 0
0 0 0 0 0 0 0 0 0 0 0 0 0 0 0 3 3 3 3 0 0 0 0 0 0 0 0 0 0 0 0 0 0 0 0 0 0 0 0 0 0 0 0 0 0 0 0 0 0
0 0 0 0 0 0 0 0 0 0 0 0 0 0 0 0 3 3 3 0 0 0 0 0 0 0 0 0 0 0 0 0 0 0 0 0 0 0 0 0 0 0 0 0 0 0 0 0 0
Height
5886 5886 5887 5887 5888 5887 5886 5886 5885 5885 5885 5885 5884 5884 5884 5884 5885 5886 5883 5881 5881 5881 5881 5880 5880 5880 5880 5880 5880 5879 5879 5879 5879 5878 5878 5878 5877 5877 5876 5876 5876 5875 5875 5874 5874 5874 5874 5873 5873
5885 5886 5887 5887 5886 5885 5886 5885 5885 5885 5885 5884 5884 5884 5883 5883 5883 5882 5881 5881 5880 5880 5880 5880 5879 5879 5879 5879 5879 5878 5878 5878 5877 5877 5877 5876 5876 5875 5875 5875 5874 5874 5874 5873 5873 5873 5872 5872 5871
5885 5885 5886 5885 5884 5885 5885 5884 5884 5884 5883 5883 5883 5883 5883 5882 5882 5881 5880 5880 5879 5879 5879 5879 5878 5878 5878 5878 5877 5877 5877 5877 5876 5876 5876 5875 5874 5874 5873 5873 5873 5872 5872 5872 5871 5871 5871 5870 5870
5884 5885 5885 5885 5883 5884 5883 5883 5883 5883 5882 5882 5882 5882 5881 5881 5881 5880 5879 5878 5878 5878 5878 5877 5877 5877 5877 5877 5876 5876 5876 5875 5875 5875 5874 5873 5873 5872 5872 5871 5871 5871 5870 5870 5869 5869 5869 5868 5868
5883 5884 5884 5883 5883 5882 5882 5882 5882 5882 5881 5881 5881 5880 5880 5880 5879 5878 5878 5877 5877 5877 5876 5876 5876 5876 5875 5875 5875 5874 5874 5874 5874 5873 5872 5872 5871 5870 5870 5869 5869 5869 5868 5868 5868 5867 5867 5866 5866
5883 5883 5883 5882 5882 5881 5881 5881 5881 5881 5880 5880 5880 5879 5879 5878 5877 5877 5876 5876 5876 5875 5875 5874 5874 5874 5874 5873 5873 5872 5872 5872 5872 5871 5870 5870 5869 5869 5868 5867 5867 5867 5866 5866 5865 5865 5865 5864 5864
5882 5881 5881 5881 5880 5880 5880 5880 5879 5879 5879 5879 5878 5878 5877 5877 5876 5875 5875 5874 5874 5874 5873 5873 5872 5872 5872 5871 5871 5870 5870 5870 5869 5869 5868 5868 5867 5866 5866 5865 5865 5864 5864 5864 5863 5863 5862 5862 5861
5880 5881 5880 5880 5879 5879 5879 5878 5878 5878 5877 5877 5877 5876 5876 5875 5875 5874 5873 5873 5872 5872 5871 5871 5871 5870 5870 5869 5869 5868 5868 5867 5867 5866 5866 5865 5865 5864 5864 5863 5863 5862 5861 5861 5861 5860 5860 5859 5859
5879 5880 5879 5879 5878 5878 5877 5877 5877 5876 5876 5875 5875 5875 5874 5873 5873 5872 5872 5871 5870 5870 5870 5869 5869 5868 5868 5867 5866 5866 5865 5865 5864 5864 5863 5863 5862 5862 5861 5860 5860 5860 5859 5859 5858 5858 5857 5857 5857
5877 5878 5878 5877 5877 5876 5876 5876 5876 5875 5874 5874 5873 5873 5872 5872 5871 5870 5870 5869 5869 5868 5868 5867 5867 5866 5866 5865 5864 5863 5863 5862 5862 5861 5860 5860 5859 5859 5858 5858 5857 5857 5857 5856 5856 5856 5855 5855 5854
5875 5876 5876 5875 5875 5875 5875 5874 5874 5874 5873 5872 5872 5871 5870 5870 5869 5869 5868 5868 5867 5866 5866 5865 5864 5864 5863 5863 5862 5861 5860 5859 5859 5858 5857 5856 5856 5856 5855 5855 5855 5854 5854 5854 5854 5853 5853 5852 5851
5874 5874 5874 5873 5873 5873 5873 5872 5872 5872 5872 5871 5870 5869 5869 5868 5868 5867 5866 5866 5865 5864 5863 5862 5862 5861 5860 5860 5859 5858 5857 5856 5856 5855 5854 5853 5853 5853 5852 5852 5852 5852 5851 5851 5851 5851 5850 5849 5849
5872 5872 5872 5872 5871 5871 5871 5871 5870 5870 5870 5869 5869 5868 5867 5867 5866 5865 5864 5863 5863 5862 5861 5860 5859 5858 5858 5857 5856 5855 5854 5853 5852 5851 5851 5850 5850 5850 5849 5849 5849 5849 5848 5848 5848 5848 5847 5847 5846
5870 5870 5870 5870 5870 5869 5869 5869 5869 5868 5868 5868 5867 5866 5866 5865 5865 5864 5863 5862 5861 5860 5858 5857 5856 5855 5855 5854 5853 5852 5851 5850 5849 5849 5848 5847 5847 5846 5846 5846 5845 5845 5845 5845 5845 5845 5844 5844 5843
5868 5868 5868 5868 5868 5867 5867 5867 5867 5866 5866 5866 5865 5865 5864 5863 5862 5862 5861 5859 5858 5857 5856 5855 5854 5853 5852 5851 5850 5849 5848 5847 5847 5846 5845 5844 5844 5843 5843 5842 5842 5842 5842 5841 5841 5841 5841 5841 5840
5866 5867 5867 5866 5866 5865 5867 5865 5864 5864 5864 5863 5863 5863 5862 5861 5860 5859 5858 5856 5855 5854 5853 5852 5851 5850 5849 5848 5847 5846 5845 5844 5844 5843 5842 5841 5840 5840 5840 5839 5839 5839 5839 5838 5838 5838 5838 5837 5837
5864 5864 5864 5864 5863 5863 5863 5863 5862 5861 5861 5861 5861 5860 5859 5859 5858 5857 5855 5854 5852 5851 5850 5849 5848 5847 5846 5845 5844 5843 5842 5841 5840 5839 5839 5838 5837 5837 5836 5836 5836 5835 5835 5835 5835 5835 5834 5834 5834
5862 5862 5862 5862 5861 5861 5861 5860 5859 5859 5858 5858 5858 5858 5857 5856 5855 5854 5853 5851 5850 5848 5847 5846 5845 5844 5843 5842 5841 5840 5838 5837 5837 5836 5835 5835 5834 5833 5833 5832 5832 5832 5832 5831 5831 5831 5831 5831 5830
5859 5859 5859 5859 5859 5858 5858 5857 5857 5856 5856 5855 5855 5855 5854 5854 5852 5851 5850 5849 5847 5846 5845 5843 5842 5841 5840 5839 5838 5836 5835 5834 5833 5833 5832 5831 5830 5829 5829 5829 5828 5828 5828 5828 5827 5827 5827 5827 5826
5855 5856 5856 5856 5856 5855 5855 5855 5854 5853 5853 5853 5852 5852 5852 5851 5849 5848 5847 5846 5845 5844 5842 5840 5839 5838 5837 5836 5834 5833 5832 5831 5830 5829 5828 5828 5827 5826 5825 5825 5824 5824 5824 5824 5823 5823 5823 5823 5822
5853 5853 5853 5853 5853 5852 5852 5853 5852 5851 5850 5850 5849 5849 5849 5848 5847 5845 5844 5843 5842 5840 5839 5837 5836 5834 5833 5832 5831 5829 5828 5827 5826 5825 5825 5824 5823 5822 5821 5821 5820 5820 5819 5819 5819 5819 5819 5818 5818
5850 5850 5850 5850 5850 5849 5850 5850 5850 5848 5847 5847 5847 5846 5846 5845 5844 5842 5841 5840 5838 5837 5835 5834 5832 5831 5830 5828 5827 5826 5825 5824 5823 5822 5821 5820 5819 5818 5817 5817 5816 5816 5815 5815 5815 5815 5815 5814 5814
5847 5847 5847 5846 5846 5846 5846 5846 5847 5845 5844 5844 5844 5843 5843 5842 5840 5839 5838 5837 5835 5834 5832 5830 5829 5828 5826 5825 5823 5822 5821 5820 5819 5818 5817 5816 5815 5815 5814 5813 5813 5812 5812 5811 5811 5811 5810 5810 5810
5843 5844 5843 5843 5843 5843 5843 5843 5843 5842 5842 5841 5841 5840 5839 5838 5837 5836 5835 5833 5832 5830 5829 5827 5825 5824 5822 5821 5820 5818 5817 5816 5815 5815 5814 5813 5812 5811 5810 5810 5809 5809 5808 5807 5807 5807 5807 5806 5806
5840 5840 5840 5839 5839 5840 5840 5839 5840 5839 5839 5838 5838 5837 5836 5835 5834 5832 5831 5829 5828 5826 5825 5823 5822 5820 5818 5817 5815 5814 5813 5812 5811 5811 5810 5809 5808 5807 5806 5806 5805 5805 5804 5804 5803 5803 5803 5802 5802
5836 5837 5837 5837 5836 5836 5836 5835 5837 5836 5836 5835 5835 5834 5833 5832 5830 5829 5827 5826 5824 5823 5821 5819 5817 5816 5814 5812 5811 5810 5809 5808 5807 5806 5805 5804 5803 5803 5802 5801 5801 5801 5800 5800 5799 5799 5799 5798 5797
5832 5832 5833 5833 5832 5832 5832 5832 5833 5832 5832 5832 5831 5830 5829 5828 5827 5825 5823 5822 5820 5819 5817 5815 5813 5811 5810 5808 5807 5806 5805 5804 5803 5802 5801 5800 5799 5798 5798 5797 5796 5796 5796 5795 5795 5795 5794 5794 5793
5828 5828 5829 5828 5828 5827 5828 5828 5829 5828 5828 5828 5828 5827 5825 5824 5823 5821 5820 5818 5816 5815 5813 5811 5809 5807 5805 5804 5802 5801 5800 5799 5798 5797 5796 5795 5794 5794 5793 5793 5792 5792 5791 5791 5790 5790 5790 5789 5788
5824 5824 5824 5824 5824 5824 5824 5827 5825 5824 5824 5824 5823 5822 5821 5820 5819 5817 5816 5814 5812 5810 5809 5806 5805 5803 5801 5800 5798 5797 5796 5795 5793 5792 5791 5790 5789 5789 5788 5788 5787 5787 5786 5786 5786 5785 5785 5784 5784
5819 5819 5819 5820 5819 5819 5819 5823 5820 5819 5819 5819 5818 5817 5816 5815 5814 5813 5811 5810 5808 5806 5804 5802 5801 5799 5797 5796 5794 5793 5792 5790 5789 5787 5786 5785 5784 5784 5783 5783 5782 5782 5781 5781 5780 5780 5779 5779 5778
Wind_Speed
4 4 4 4 4 3 3 3 2 2 2 3 2 2 3 3 3 3 3 3 3 3 3 4 5 5 5 5 5 5 5 6 6 6 6 7 7 7 8 8 7 7 7 8 8 8 8 8 8
4 4 5 5 4 4 4 3 2 3 2 2 2 2 3 4 4 4 4 4 4 4 4 5 5 6 6 6 6 6 6 6 6 7 7 8 8 8 9 9 9 9 9 8 9 9 9 9 9
4 4 4 5 5 5 5 4 3 3 3 3 3 3 4 4 3 4 4 4 5 5 5 6 6 6 6 6 6 7 7 7 7 7 8 8 8 8 9 9 10 10 9 9 9 10 10 10 10
4 5 5 5 5 6 5 4 3 3 3 4 4 4 4 5 4 5 6 6 6 5 5 5 6 6 7 7 8 7 7 8 8 8 8 8 8 8 9 9 10 10 10 10 10 10 10 10 10
4 5 5 5 5 6 5 4 3 4 4 4 4 5 5 5 5 6 6 6 6 6 5 5 6 6 7 8 8 8 8 8 9 9 8 8 8 9 9 9 10 10 10 10 10 10 10 11 10
5 5 5 6 5 5 5 4 4 5 5 5 4 4 5 6 6 6 6 6 6 6 6 6 6 7 7 8 9 9 9 9 10 10 9 9 9 9 9 9 9 9 9 10 10 10 10 10 11
6 6 5 5 4 5 4 4 5 6 5 5 5 5 5 6 6 6 6 6 6 7 7 7 7 7 7 8 9 10 10 10 11 11 11 11 11 10 10 10 10 10 10 10 10 10 10 10 10
6 6 6 5 5 5 5 5 5 6 6 6 6 6 5 6 6 6 7 7 7 7 8 8 8 8 8 9 9 10 10 10 11 11 12 11 11 11 11 11 11 11 11 10 10 10 10 10 10
6 6 6 6 6 6 6 6 6 6 7 7 7 7 6 7 6 6 7 7 7 7 8 8 9 9 10 9 9 10 11 11 11 11 12 11 11 12 12 11 11 11 10 10 10 10 10 10 10
7 6 6 6 7 7 7 7 7 7 7 7 7 7 6 7 7 7 7 8 8 8 8 8 9 10 10 10 10 11 12 12 12 12 12 12 12 12 12 12 12 11 10 10 10 10 10 11 10
7 7 7 7 7 8 8 8 7 7 7 7 6 6 6 7 7 7 8 8 8 8 8 9 10 10 11 11 11 11 12 12 13 12 12 12 12 12 12 12 12 12 11 11 11 11 11 12 11
7 7 7 7 7 8 7 8 7 7 7 7 6 6 6 7 7 7 8 8 8 9 9 10 10 11 11 11 11 11 11 12 12 12 12 12 12 12 12 11 13 12 12 12 12 13 13 12 12
7 7 7 7 8 8 7 7 8 8 8 7 6 7 7 8 8 8 9 9 9 9 10 10 10 11 11 11 10 11 11 11 11 11 11 12 12 11 11 12 12 12 12 12 12 12 12 12 12
7 7 8 7 7 7 7 7 8 8 8 7 7 7 7 7 8 8 9 10 10 10 10 10 10 10 10 10 10 11 11 10 11 11 11 11 11 10 12 12 12 12 12 12 11 11 12 12 12
7 8 8 7 7 7 7 8 8 9 8 7 7 7 7 8 9 9 10 11 11 10 11 11 10 10 10 10 11 11 11 11 11 11 11 11 11 12 12 12 12 12 12 12 11 11 12 12 12
8 8 8 8 7 7 8 7 8 9 8 8 7 7 8 9 10 10 11 11 11 11 11 11 10 10 10 11 11 12 12 12 12 11 11 11 11 11 12 12 12 12 12 12 11 11 12 12 12
9 8 8 8 8 7 8 8 9 9 9 8 8 8 8 10 11 11 11 10 11 11 11 11 11 11 11 11 11 11 11 12 12 12 12 12 12 12 12 13 12 12 12 12 12 12 12 12 12
10 9 9 9 8 9 8 8 9 9 9 9 8 8 9 10 12 12 12 11 12 11 11 11 11 11 11 12 12 12 12 12 12 12 11 12 12 12 12 12 12 12 13 13 13 13 13 12 12
11 10 10 10 9 9 9 9 8 9 9 9 8 9 10 11 12 12 12 12 12 12 12 12 12 12 12 12 12 12 12 12 12 11 11 11 12 12 12 12 12 13 13 13 13 13 13 13 13
11 11 10 10 9 9 9 9 8 9 9 9 9 9 10 11 12 12 12 11 11 12 13 13 13 13 13 13 13 13 12 12 12 12 12 11 12 12 12 12 12 13 13 13 13 13 13 13 13
12 11 11 10 10 10 9 8 8 8 9 9 9 9 10 10 10 11 11 11 12 13 14 14 13 12 13 13 13 13 12 12 12 12 12 12 12 12 12 12 13 13 13 13 14 13 13 13 13
12 11 11 12 11 10 10 9 8 9 9 9 9 10 10 10 11 11 11 12 12 13 13 14 13 13 13 13 13 13 12 12 12 12 12 12 12 12 12 12 12 13 13 14 14 14 14 14 14
12 11 11 12 12 11 11 11 9 9 9 9 9 10 10 10 11 11 11 12 12 13 13 14 14 14 13 13 13 13 13 13 13 12 12 12 12 12 12 12 13 13 13 13 14 13 14 14 14
11 11 12 12 13 13 11 11 9 9 9 9 10 11 11 11 12 12 12 12 13 14 13 13 14 13 13 13 13 13 13 13 13 13 13 13 13 13 13 13 13 14 13 14 14 14 14 14 14
11 12 13 13 14 13 12 13 11 10 10 10 10 11 11 12 12 13 13 14 14 14 14 14 13 13 13 14 13 13 13 13 13 14 14 14 14 14 14 14 14 14 14 14 14 14 14 14 14
12 13 13 14 14 14 14 15 13 12 11 10 11 12 12 12 13 13 15 15 14 14 14 14 14 14 14 14 14 14 14 13 13 14 14 15 15 15 14 14 14 14 14 15 15 15 15 15 15
13 13 14 14 15 16 15 14 13 12 12 12 13 13 13 13 13 14 15 15 15 15 15 15 15 15 15 15 14 14 14 14 14 14 15 15 15 15 15 14 15 15 15 15 16 16 15 16 16
14 14 15 15 16 17 16 15 14 14 14 13 13 14 14 15 15 15 15 15 15 16 15 15 15 14 14 14 14 14 14 14 15 16 16 15 15 15 15 15 15 15 15 15 16 16 16 16 17
15 15 16 16 17 18 18 15 15 14 14 14 15 14 14 15 15 15 15 15 16 16 16 16 15 14 14 14 14 14 15 15 15 16 16 16 15 15 15 16 16 16 16 17 17 17 17 17 17
16 16 17 18 18 18 18 16 16 16 15 15 15 15 15 15 16 16 15 15 15 16 16 16 15 14 15 15 15 15 15 15 15 15 16 16 16 16 16 17 17 17 17 18 18 18 18 18 18
Wind_Direction
257 251 245 243 249 254 263 273 277 277 329 335 336 320 307 314 322 307 296 291 283 279 273 263 261 262 261 261 262 265 265 266 273 277 276 277 276 272 270 271 271 269 269 268 263 263 267 270 274
262 256 250 244 253 263 263 265 277 295 322 320 316 302 295 298 309 300 290 284 280 283 279 277 271 266 261 261 264 268 269 272 277 279 280 281 277 270 267 270 271 270 271 270 267 264 269 273 275
264 258 263 252 256 263 267 268 281 304 312 307 304 298 295 293 292 291 290 291 285 282 283 281 276 267 263 267 269 269 269 272 277 280 281 281 280 274 271 270 270 270 270 270 271 270 271 273 275
258 255 264 255 262 270 276 281 285 301 303 298 298 295 295 293 285 282 284 290 291 286 284 279 272 266 269 272 271 271 274 275 276 279 279 280 281 279 275 273 272 271 271 271 272 274 270 273 275
257 259 267 269 273 282 283 280 282 297 298 298 298 293 293 290 286 285 282 286 292 289 286 281 274 270 272 274 272 273 275 279 278 280 281 281 283 283 279 277 276 272 268 270 271 272 273 273 274
261 267 276 279 276 282 287 289 291 301 303 296 295 290 295 295 287 287 286 286 291 291 288 280 275 275 277 279 274 271 275 279 277 279 280 281 282 283 282 278 278 276 273 272 274 271 273 276 276
262 261 267 278 288 289 293 293 291 297 294 293 293 292 294 293 290 290 291 288 288 286 285 282 277 277 281 285 279 274 274 278 279 278 278 280 280 280 280 278 277 276 275 275 273 272 274 277 276
264 262 266 271 283 295 302 300 295 293 295 294 292 292 292 290 288 291 290 288 288 285 282 281 279 281 282 283 282 278 277 278 279 278 279 279 278 278 279 278 275 275 272 272 273 273 276 276 275
265 265 264 266 274 288 297 298 302 298 295 297 293 294 294 292 289 291 290 289 292 293 288 284 280 278 280 280 281 281 282 284 282 280 281 279 277 276 278 278 274 271 270 271 273 275 279 278 278
260 261 259 262 270 280 290 294 297 301 301 301 298 296 295 294 296 296 293 291 291 292 293 291 287 281 280 280 280 281 282 283 283 281 281 278 276 274 276 273 271 269 268 270 271 275 279 280 277
260 260 263 266 272 279 281 288 293 298 298 304 307 303 301 299 298 296 294 291 289 291 295 294 295 291 287 284 283 285 285 283 282 281 282 277 274 272 274 272 271 267 267 268 271 274 277 280 279
266 263 264 268 275 281 281 284 289 292 297 306 311 308 303 300 297 301 302 295 291 290 291 292 295 294 293 291 289 288 288 286 282 280 279 274 272 274 274 273 270 264 264 267 269 274 276 279 280
261 261 262 267 273 278 280 283 288 291 293 299 301 303 304 302 302 301 304 302 301 299 295 294 295 294 294 293 293 291 293 290 285 281 279 275 271 273 273 272 272 269 266 268 272 274 277 278 278
261 259 260 266 271 274 278 283 285 289 291 292 297 307 301 298 301 301 303 306 304 304 301 298 295 297 297 295 293 291 292 292 287 285 283 279 278 273 275 275 274 273 271 269 271 275 277 277 278
261 262 263 268 271 274 278 282 288 290 295 297 297 305 306 308 304 303 303 305 304 304 303 302 300 298 295 295 294 292 290 288 288 284 284 283 279 277 276 275 274 274 272 269 269 272 276 279 279
259 261 264 266 267 272 277 286 290 291 295 296 299 302 305 310 308 310 309 308 306 307 306 305 306 300 297 297 295 292 289 285 282 281 279 279 278 277 274 273 272 271 270 270 271 274 277 278 278
259 265 268 271 271 271 277 286 288 293 294 291 293 295 300 306 311 310 308 308 307 308 308 307 305 301 298 297 296 295 290 286 281 281 277 274 275 276 275 272 272 272 271 272 273 275 276 276 275
261 263 265 267 272 273 279 289 284 286 288 284 284 290 297 303 307 308 307 305 304 305 305 306 304 300 298 296 295 294 288 286 283 280 277 275 276 273 271 270 271 273 274 273 275 275 275 274 274
260 261 264 265 269 276 283 290 285 284 283 282 282 289 296 302 304 306 307 305 302 305 306 304 302 299 297 295 295 294 290 286 284 278 277 277 275 273 273 272 272 273 274 274 275 275 274 273 273
262 261 264 264 269 274 279 283 284 283 287 289 291 293 298 303 307 309 308 304 303 304 304 303 300 297 295 294 293 293 291 288 285 281 280 279 277 275 271 271 273 273 273 273 274 275 275 274 274
260 261 263 264 265 271 275 278 280 284 286 287 291 297 302 305 309 312 308 304 304 306 307 305 302 297 294 294 292 291 288 285 284 282 281 280 279 279 278 274 274 272 271 272 274 275 275 277 275
259 260 261 263 263 267 272 278 279 281 283 285 294 299 304 305 308 311 308 304 303 306 306 305 302 298 296 294 292 291 288 285 283 282 280 279 279 280 279 276 275 275 272 273 273 274 274 276 275
259 258 260 263 267 269 273 277 277 276 285 290 298 305 305 305 307 306 306 305 304 304 304 302 300 299 297 295 292 289 287 285 284 281 280 280 279 279 276 276 275 277 275 276 275 274 275 275 276
259 258 262 263 267 267 270 273 274 280 286 289 298 305 306 304 304 303 304 306 305 303 303 300 298 299 297 295 292 288 285 284 281 278 278 279 278 276 274 277 277 275 274 276 276 275 276 276 275
256 254 257 259 262 266 267 269 277 284 287 292 299 301 302 303 301 303 305 306 305 303 301 300 298 298 296 293 289 287 285 284 282 278 277 279 279 277 275 277 277 275 274 274 274 274 275 278 277
254 254 256 260 264 268 269 271 275 279 286 294 297 297 298 300 301 303 305 304 302 301 300 300 300 297 294 290 287 285 286 285 283 282 279 278 279 278 276 275 276 276 275 273 273 274 276 278 277
252 253 257 260 264 269 271 274 273 276 281 290 293 294 295 297 300 301 303 304 302 300 301 301 298 295 293 291 288 285 284 284 285 284 283 281 279 277 275 274 273 273 274 275 273 272 274 276 277
252 255 256 259 264 267 270 271 275 275 280 284 288 289 291 294 298 300 300 300 298 297 298 299 298 298 295 291 289 287 285 285 287 287 285 284 281 278 277 276 274 274 273 274 275 274 274 275 275
248 251 255 259 262 266 270 269 273 274 276 278 282 284 288 292 297 298 300 299 297 298 298 298 300 297 296 293 291 289 289 287 288 287 284 284 283 279 276 274 274 273 274 275 273 272 274 275 276
250 254 257 261 263 265 270 269 270 272 277 279 282 285 287 292 295 296 296 297 296 296 298 298 297 296 294 293 293 292 290 290 290 288 285 283 282 280 276 275 273 274 276 275 272 272 274 275 276